Airfield :
LOGIN :

Register | Disclaimer

   EN    FR    IT 

 










Legend :    VFR   Marginal VFR   IFR   Intensive IFR   Very Intensive IFR
Visi :
Ceiling :
>= 8 km
>= 3000ft
5 to 8 km
1000 to 3000 ft
1500m to 5 km
500 to 1000 ft
800 to 1500m
200 to 500 ft
< 800m
< 200 ft
Symbols :   Thunderstorms  Fog  Heavy snow  Heavy precipitations  Wind > 20 kt
SIGMETs :     Misc.  Thunderstorms  Icing  Turbulence  Mountain Waves  Volcanic Ashes






- Airport Elevation : 300 ft
- IATA code : MLA


LMML - Malta Luqa

CURRENT METAR :
  • 260015Z 14006KT CAVOK 24/22 Q1014 NOSIG

EXPIRED METARs :
  • 252345Z 15003KT CAVOK 25/21 Q1015 NOSIG
  • 252315Z AUTO 16004KT 130V190 CAVOK 25/21 Q1015 NOSIG
  • 252245Z 17003KT 130V190 CAVOK 25/21 Q1015 NOSIG
  • 252215Z 17004KT CAVOK 25/21 Q1015 NOSIG
  • 252145Z 17005KT CAVOK 26/21 Q1015 NOSIG

TAF TAF LMML
Valid from the 26 at 00:00 until the 27 at 00:00 UTC


252300Z 2600/2624 17007KT CAVOK



MET'MAP, your aeronautical weather chart ! - Copyright ORBIFLY December 2007 - Disclaimer

ORBIFLY MET'MAP TEAM :

Programming & Development : Alexandra Zaïnal
Concept & original design : Baudouin d'Aumeries
Assistance for programming : Marc-Olivier Méhu
Technical & hardware support : Manuel Goepfert

Contact : metmap@orbifly.com




SOURCES & CREDITS :

   NOAA